Regional Weather Roundup
Issued by NWS Jackson, KY

Home | Current Version | Previous Version | Graphics & Text | Print | Product List | Glossary On
Versions: 1 2 3 4 5 6 7 8 9 10 11 12 13 14 15 16 17 18 19 20 21 22 23 24 25 26 27 28 29
000
ASUS43 KJKL 290210
RWRJKL

EAST KENTUCKY HOURLY WEATHER ROUNDUP
NATIONAL WEATHER SERVICE JACKSON KY
1000 PM EDT THU APR 28 2016

NOTE: "FAIR" INDICATES FEW OR NO CLOUDS BELOW 12,000 FEET WITH
NO SIGNIFICANT WEATHER AND/OR OBSTRUCTIONS TO VISIBILITY.

* THESE REPORTS ARE NOT UNDER NWS QUALITY CONTROL AND MAY NOT
  REPORT WEATHER SUCH AS PRECIPITATION AND FOG.

KYZ079-080-083-085-087-088-110-112-115-119-120-290300
...EASTERN KENTUCKY...

CITY           SKY/WX    TMP DP  RH WIND       PRES   REMARKS
JACKSON        CLEAR     68  56  65 VRB6      29.93R
LONDON         CLEAR     68  56  65 W5        29.95R
SOMERSET*      CLEAR     66  54  63 W3        29.96R
WILLIAMSBURG*  CLEAR     66  54  63 CALM      29.96R
MIDDLESBORO*   CLEAR     65  57  75 CALM      29.95R
HARLAN APT*      N/A     63  55  77 CALM      29.96R
HAZARD APT*    CLEAR     70  55  60 W5        29.93R
BLACK MTN*       N/A     59  54  82 SW3         N/A
PIKE CO APT*     N/A     65  58  78 CALM      29.93R
BIG SANDY APT* PTCLDY    63  62  99 CALM      29.92R
MOREHEAD APT*  CLEAR     68  52  56 W5        29.93R
$$

KYZ035-036-041-042-044-050-067-078-099-290300
...CENTRAL KENTUCKY...

CITY           SKY/WX    TMP DP  RH WIND       PRES   REMARKS
MT STERLING*   CLEAR     64  52  63 NW7       29.95R
FLEMING/MASON* CLEAR    N/A N/A N/A NW12      29.92R
DANVILLE*      CLEAR     64  50  59 W3        29.95R
RICHMOND*      CLEAR     68  54  60 W7        29.93R
LEXINGTON      CLEAR     66  47  50 W6        29.94R
FRANKFORT      CLEAR     68  45  43 NW6       29.93R
LOUISVILLE     PTCLDY    69  48  47 W5        29.93R
LEBANON*         N/A     66  50  55 SW3       29.95R
BOWLING GREEN  CLEAR     68  51  54 W6        29.95R
$$

KYZ091>093-OHZ055-061-077-WVZ005-015-034-035-042-290300
...SOUTHERN OHIO/WEST VIRGINIA...

CITY           SKY/WX    TMP DP  RH WIND       PRES   REMARKS
COVINGTON      CLEAR     63  56  78 N8        29.93R
COLUMBUS       MOCLDY    56  52  86 CALM      29.91R
DAYTON         CLOUDY    52  50  93 N9        29.96R FOG
WILMINGTON     PTCLDY    58  56  93 N7        29.93R FOG
HUNTINGTON       N/A     66  59  78 CALM      29.88R
CHARLESTON       N/A     66  59  78 S7        29.89R
BECKLEY          N/A     63  56  78 CALM      29.96R
$$

VAZ002-007-008-TNZ017-027-036-066-071-290300
...SOUTHWEST VIRGINIA/EAST TENNESSEE...

CITY           SKY/WX    TMP DP  RH WIND       PRES   REMARKS
WISE*            N/A     64  46  52 W6        30.00R
BRISTOL        PTCLDY    68  55  63 SW5       29.94R
MORRISTOWN*    PTCLDY    72  57  60 VRB6      29.94R
SEVIERVILLE*   CLEAR     68  57  68 CALM      29.93R
KNOXVILLE      CLEAR     71  58  63 CALM      29.94R
OAK RIDGE      CLEAR     72  57  59 CALM      29.95R
CROSSVILLE     CLEAR     67  57  70 W5        30.01R
NASHVILLE      CLEAR     74  50  42 CALM      29.97R
$$

...KEY TO REMARKS...
VSB - VISIBILITY IN MILES
WCI - WIND CHILL INDEX
HX  - HEAT INDEX

$$




USA.gov is the U.S. government's official web portal to all federal, state and local government web resources and services.